Weather History for VTBD - August, 2013

Change the Weather History Date:

Monday, August 5, 2013

  Actual Average Record
Temperature  
Mean Temperature 86 °F -  
Max Temperature 92 °F 90 °F 95 °F (1996)
Min Temperature 79 °F 77 °F 73 °F (1999)
Cooling Degree Days 20    
Growing Degree Days 36 (Base 50)    
Moisture  
Dew Point 75 °F    
Average Humidity 73    
Maximum Humidity 89    
Minimum Humidity 45    
Precipitation  
Precipitation 0.00 in 0.26 in - ()
Sea Level Pressure  
Sea Level Pressure 29.79 in    
Wind  
Wind Speed 5 mph ()    
Max Wind Speed 14 mph    
Max Gust Speed -    
Visibility 6.2 miles    
Events      
Averages and records for this station are not official NWS values.
T = Trace of Precipitation, MM = Missing Value Source: Averaged Metar Reports

Daily Weather History Graph

Daily Weather History Graph

Search for Another Location

Airport or City:

Trip Planner

Search our weather history database for the weather conditions in past years. The results will help you decide how hot, cold, wet, or windy it might be!

Date:

Astronomy

Aug. 05, 2013 Rise Set
Actual Time 6:02 AM ICT 6:44 PM ICT
Civil Twilight 5:40 AM ICT 7:06 PM ICT
Nautical Twilight 5:13 AM ICT 7:33 PM ICT
Astronomical Twilight 4:47 AM ICT 7:59 PM ICT
Moon 4:30 AM ICT (8/5) 5:27 PM ICT (8/5)
Length of Visible Light 13h 26m
Length of Day
12h 41m
Waning Crescent, 3% of the Moon is Illuminated
Aug 5
Waning Crescent
Aug 7
New
Aug 14
First Quarter
Aug 21
Full
Aug 28
Last Quarter

Hourly Weather History & Observations

Time (ICT) Temp. Heat Index Dew Point Humidity Pressure Visibility Wind Dir Wind Speed Gust Speed Precip Events Conditions
12:00 AM 84.2 °F 94.1 °F 77.0 °F 79% 29.83 in 6.2 mi South 5.8 mph - N/A   Mostly Cloudy
12:30 AM 84.2 °F 94.1 °F 77.0 °F 79% 29.83 in 6.2 mi South 5.8 mph - N/A   Mostly Cloudy
1:00 AM 83 °F - 78 °F 79% 29.82 in 6 mi South 3.5 mph - -   Scattered Clouds
1:00 AM 82.4 °F 90.9 °F 77.0 °F 84% 29.80 in 6.2 mi South 3.5 mph - N/A   Mostly Cloudy
1:30 AM 82.4 °F 90.9 °F 77.0 °F 84% 29.80 in 6.2 mi South 3.5 mph - N/A   Mostly Cloudy
2:00 AM 82.4 °F 90.9 °F 77.0 °F 84% 29.80 in 6.2 mi South 3.5 mph - N/A   Mostly Cloudy
2:30 AM 82.4 °F 90.9 °F 77.0 °F 84% 29.77 in 6.2 mi South 5.8 mph - N/A   Mostly Cloudy
3:00 AM 80.6 °F 86.2 °F 75.2 °F 84% 29.77 in 6.2 mi South 4.6 mph - N/A   Mostly Cloudy
3:30 AM 80.6 °F 86.2 °F 75.2 °F 84% 29.77 in 6.2 mi South 10.4 mph - N/A   Mostly Cloudy
4:00 AM 80.6 °F 86.2 °F 75.2 °F 84% 29.77 in 6.2 mi SSW 3.5 mph - N/A   Mostly Cloudy
4:30 AM 80.6 °F 86.2 °F 75.2 °F 84% 29.80 in 6.2 mi West 3.5 mph - N/A   Mostly Cloudy
5:00 AM 80.6 °F 86.2 °F 75.2 °F 84% 29.80 in 6.2 mi SSW 3.5 mph - N/A   Mostly Cloudy
5:30 AM 80.6 °F 85.4 °F 73.4 °F 79% 29.77 in 6.2 mi SSE 4.6 mph - N/A   Mostly Cloudy
6:00 AM 80.6 °F 86.2 °F 75.2 °F 84% 29.80 in 6.2 mi South 3.5 mph - N/A   Mostly Cloudy
6:30 AM 80.6 °F 86.2 °F 75.2 °F 84% 29.80 in 6.2 mi South 2.3 mph - N/A   Mostly Cloudy
7:00 AM 80 °F - 76 °F 85% 29.83 in 6 mi South 3.5 mph - -   Scattered Clouds
7:00 AM 80.6 °F 87.1 °F 77.0 °F 89% 29.83 in 6.2 mi South 3.5 mph - N/A   Mostly Cloudy
7:30 AM 80.6 °F 86.2 °F 75.2 °F 84% 29.83 in 6.2 mi South 4.6 mph - N/A   Mostly Cloudy
8:00 AM 82.4 °F 90.9 °F 77.0 °F 84% 29.83 in 6.2 mi South 4.6 mph - N/A   Mostly Cloudy
8:30 AM 82.4 °F 89.5 °F 75.2 °F 79% 29.83 in 6.2 mi South 3.5 mph - N/A   Mostly Cloudy
9:00 AM 84.2 °F 92.3 °F 75.2 °F 74% 29.83 in 6.2 mi SSW 8.1 mph - N/A   Mostly Cloudy
9:30 AM 86.0 °F 95.1 °F 75.2 °F 70% 29.86 in 6.2 mi WSW 5.8 mph - N/A   Mostly Cloudy
10:00 AM 87.8 °F 97.6 °F 75.2 °F 66% 29.86 in 6.2 mi SW 5.8 mph - N/A   Mostly Cloudy
10:30 AM 87.8 °F 97.6 °F 75.2 °F 66% 29.86 in 6.2 mi SSE 3.5 mph - N/A   Mostly Cloudy
11:00 AM 89.6 °F 99.8 °F 75.2 °F 62% 29.83 in 6.2 mi South 8.1 mph - N/A   Mostly Cloudy
11:30 AM 91.4 °F 102.5 °F 75.2 °F 59% 29.83 in 6.2 mi SSW 4.6 mph - N/A   Mostly Cloudy
12:00 PM 91.4 °F 102.5 °F 75.2 °F 59% 29.80 in 6.2 mi SSE 3.5 mph - N/A   Mostly Cloudy
12:30 PM 93.2 °F 102.4 °F 73.4 °F 52% 29.80 in 6.2 mi ESE 4.6 mph - N/A   Mostly Cloudy
1:00 PM 93 °F - 74 °F 45% 29.80 in 6 mi South 3.5 mph - -   Scattered Clouds
1:00 PM 93.2 °F 102.4 °F 73.4 °F 52% 29.77 in 6.2 mi South 3.5 mph - N/A   Mostly Cloudy
1:30 PM 93.2 °F 102.4 °F 73.4 °F 52% 29.77 in 6.2 mi South 3.5 mph - N/A   Mostly Cloudy
2:00 PM 91.4 °F 102.5 °F 75.2 °F 59% 29.74 in 6.2 mi SSW 3.5 mph - N/A   Mostly Cloudy
2:30 PM 91.4 °F 102.5 °F 75.2 °F 59% 29.74 in 6.2 mi North 5.8 mph - N/A   Mostly Cloudy
3:00 PM 91.4 °F 102.5 °F 75.2 °F 59% 29.74 in 6.2 mi ENE 6.9 mph - N/A   Mostly Cloudy
3:30 PM 89.6 °F 99.8 °F 75.2 °F 62% 29.74 in 6.2 mi East 6.9 mph - N/A   Mostly Cloudy
4:00 PM 89.6 °F 99.8 °F 75.2 °F 62% 29.74 in 6.2 mi SSE 6.9 mph - N/A   Mostly Cloudy
4:30 PM 89.6 °F 99.8 °F 75.2 °F 62% 29.74 in 6.2 mi South 13.8 mph - N/A   Mostly Cloudy
5:00 PM 87.8 °F 97.6 °F 75.2 °F 66% 29.74 in 6.2 mi SSW 11.5 mph - N/A   Mostly Cloudy
5:30 PM 86.0 °F 95.1 °F 75.2 °F 70% 29.71 in 6.2 mi SSW 8.1 mph - N/A   Mostly Cloudy
6:00 PM 86.0 °F 95.1 °F 75.2 °F 70% 29.71 in 6.2 mi SSW 6.9 mph - N/A   Mostly Cloudy
6:30 PM 86.0 °F 95.1 °F 75.2 °F 70% 29.71 in 6.2 mi SSW 3.5 mph - N/A   Mostly Cloudy
7:00 PM 85 °F - 75 °F 66% 29.75 in 6 mi West 5.8 mph - -   Scattered Clouds
7:00 PM 84.2 °F 92.3 °F 75.2 °F 74% 29.74 in 6.2 mi West 5.8 mph - N/A   Mostly Cloudy
7:30 PM 84.2 °F 92.3 °F 75.2 °F 74% 29.74 in 6.2 mi SSW 8.1 mph - N/A   Mostly Cloudy
8:00 PM 84.2 °F 92.3 °F 75.2 °F 74% 29.74 in 6.2 mi SSW 8.1 mph - N/A   Mostly Cloudy
8:30 PM 84.2 °F 92.3 °F 75.2 °F 74% 29.77 in 6.2 mi South 5.8 mph - N/A   Mostly Cloudy
9:00 PM 84.2 °F 92.3 °F 75.2 °F 74% 29.77 in 6.2 mi SSW 4.6 mph - N/A   Mostly Cloudy
9:30 PM 84.2 °F 92.3 °F 75.2 °F 74% 29.77 in 6.2 mi South 3.5 mph - N/A   Mostly Cloudy
10:00 PM 84.2 °F 92.3 °F 75.2 °F 74% 29.80 in 6.2 mi South 3.5 mph - N/A   Mostly Cloudy
10:30 PM 84.2 °F 92.3 °F 75.2 °F 74% 29.80 in 6.2 mi SSW 3.5 mph - N/A   Mostly Cloudy
11:00 PM 84.2 °F 94.1 °F 77.0 °F 79% 29.80 in 6.2 mi SSW 4.6 mph - N/A   Mostly Cloudy
11:30 PM 82.4 °F 90.9 °F 77.0 °F 84% 29.80 in 6.2 mi SSW 4.6 mph - N/A   Mostly Cloudy